www.pogodaiklimat.ru

Погода и климат >> Архив погоды >> Пакистан >> Суккур


ПОГОДА в Суккуре

  • Прогноз погоды в Суккуре
  • Монитор погоды в Суккуре

АРХИВ ПОГОДЫ в Суккуре

Время (UTC), дата Ветер
(напр.,м/с)
 
Видим.   Явления Облачность Т
(С)
Тd
(С)
f
(%)
Тe
(С)
Тes
(С)
Комфортность P
(гПа)
Po
(гПа)
Тmin
(С)
Tmax
(С)
R
(мм)
R24
(мм)
S
(см)
09 19.06 ЮВ 2 4000 м мгла ясно +37.5 +25.8 51 +52 +71 опасность
перегрева
1000.9 994.6
12 19.06 ЮВ 5 4000 м мгла 5/3 1200 м
[Sc Ac trans]
+39.5 +23.3 40 +49 +51 опасность
перегрева
997.4 991.2 +41.5
15 19.06 ЮВ 5 4000 м мгла 3/0
[Ac trans]
+37.0 +21.0 40 +44 +44 опасность
перегрева
998.7 992.4
18 19.06 штиль 0 50 км мгла ?/? +34.0 +20.8 46 +41 +41 опасность
перегрева
1000.3 994.0
21 19.06 штиль 0 50 км мгла ?/? +32.0 +20.0 49 +38 +38 очень
душно
999.7 993.3
00 20.06 СВ 2 4000 м мгла ясно +30.5 +19.1 51 +36 +36 очень
душно
994.8 992.0
03 20.06 ЮВ 5 4000 м мгла ясно +33.0 +23.0 56 +43 +46 опасность
перегрева
1001.5 994.0 +30.0
06 20.06 Ю 5 4000 м мгла ясно +38.0 +25.6 49 +52 +62 опасность
перегрева
1003.4 997.1
09 20.06 Ю 4 4000 м мгла ясно +41.0 +23.5 37 +51 +63 опасность
перегрева
1000.6 994.4
12 20.06 Ю 4 4000 м мгла ясно +41.5 +24.1 37 +52 +55 опасность
перегрева
998.0 990.7 +42.5
15 20.06 ЮВ 2 4000 м мгла ясно +38.0 +23.1 43 +48 +48 опасность
перегрева
998.5 992.3
18 20.06 Ю 3 4000 м мгла ясно +35.0 +23.7 52 +46 +46 опасность
перегрева
999.7 993.4
21 20.06 Ю 3 4000 м мгла ясно +33.0 +23.8 59 +45 +45 опасность
перегрева
998.9 992.6
00 21.06 Ю 2 4000 м мгла ясно +31.0 +23.9 66 +43 +43 опасность
перегрева
999.3 991.8
03 21.06 В 5 4000 м мгла ясно +32.0 +23.4 60 +43 +46 опасность
перегрева
1002.7 995.2 +30.5
06 21.06 ЮВ 5 4000 м мгла ясно +36.0 +24.0 50 +47 +57 опасность
перегрева
1004.9 998.6
12 21.06 Ю 5 4000 м мгла ясно +42.0 +22.1 32 +49 +52 опасность
перегрева
999.8 992.6 +42.5
15 21.06 штиль 0 4000 м мгла ясно +38.0 +24.0 45 +49 +49 опасность
перегрева
999.5 993.3
18 21.06 Ю 3 4000 м мгла ясно +35.0 +22.9 50 +45 +45 опасность
перегрева
1000.7 994.4
21 21.06 Ю 2 4000 м мгла ясно +32.0 +21.8 55 +41 +41 опасность
перегрева
1000.9 994.5
00 22.06 Ю 3 4000 м мгла ясно +30.0 +21.1 59 +38 +38 очень
душно
1000.7 993.1
03 22.06 штиль 0 4000 м мгла ясно +34.0 +23.3 54 +45 +53 опасность
перегрева
1002.7 995.3 +29.5
06 22.06 Ю 2 4000 м мгла ясно +39.0 +22.7 39 +48 +67 опасность
перегрева
1003.9 997.7
09 22.06 ЮЗ 4 4000 м мгла ясно +42.5 +21.9 31 +50 +62 опасность
перегрева
1001.5 995.3
12 22.06 ЮЗ 5 4000 м мгла ясно +42.0 +22.1 32 +49 +52 опасность
перегрева
998.7 991.5 +44.5
15 22.06 ЮЗ 3 4000 м мгла ясно +38.5 +23.8 43 +49 +49 опасность
перегрева
998.5 992.3
18 22.06 штиль 0 4000 м мгла ясно +35.0 +24.5 55 +48 +48 опасность
перегрева
1000.4 994.1
00 23.06 штиль 0 4000 м мгла ясно +31.5 +21.4 55 +39 +39 очень
душно
1000.3 992.7
03 23.06 ЮВ 3 4000 м мгла ясно +34.0 +23.3 54 +45 +50 опасность
перегрева
1001.0 993.6 +31.0
06 23.06 ЮВ 3 4000 м мгла ясно +39.5 +25.0 44 +52 +68 опасность
перегрева
1000.8 994.6
09 23.06 ЮВ 5 4000 м мгла ясно +43.0 +21.6 30 +50 +60 опасность
перегрева
998.9 992.8
12 23.06 ЮЗ 5 4000 м мгла ясно +43.0 +21.6 30 +50 +53 опасность
перегрева
996.5 989.3 +44.5
15 23.06 Ю 2 4000 м мгла ясно +43.0 +23.1 33 +52 +52 опасность
перегрева
997.3 991.2
18 23.06 ЮВ 3 4000 м мгла ясно +36.0 +23.2 48 +46 +46 опасность
перегрева
999.1 992.8
21 23.06 ЮВ 3 4000 м мгла ясно +34.0 +22.5 51 +43 +43 опасность
перегрева
998.4 992.1
00 24.06 Ю 2 4000 м мгла ясно +31.5 +22.0 57 +40 +40 очень
душно
998.5 992.1
03 24.06 СВ 5 4000 м мгла 3/0
[Ac trans]
+31.0 +22.3 60 +40 +43 очень
душно
1002.9 995.4 +29.5
06 24.06 СВ 5 4000 м мгла ясно +36.0 +24.9 53 +49 +59 опасность
перегрева
1003.6 997.3
09 24.06 СВ 6 4000 м мгла ясно +39.0 +23.5 41 +49 +56 опасность
перегрева
1001.6 995.4
12 24.06 СВ 4 4000 м мгла ясно +40.0 +23.1 38 +49 +53 опасность
перегрева
1000.3 993.0 +41.0
15 24.06 СВ 5 4000 м мгла 4/4 1200 м
[Sc]
+35.0 +23.7 52 +46 +46 опасность
перегрева
1001.5 995.2
18 24.06 СВ 4 4000 м мгла 6/4 1200 м
[Sc Ac trans]
+33.0 +22.1 53 +42 +42 опасность
перегрева
1003.8 997.4
21 24.06 СВ 3 4000 м мгла 6/4 1200 м
[Sc Ac trans]
+32.0 +21.8 55 +41 +41 опасность
перегрева
1003.2 996.8
00 25.06 СВ 2 4000 м мгла 6/4 1200 м
[Sc Ac trans]
+30.5 +21.7 59 +39 +39 очень
душно
1003.5 995.9
03 25.06 СВ 4 4000 м мгла ясно +32.0 +23.4 60 +43 +46 опасность
перегрева
1004.8 997.3 +30.0
06 25.06 ЮВ 2 4000 м мгла ясно +38.5 +24.6 45 +50 +70 опасность
перегрева
1004.6 998.3
09 25.06 Ю 3 4000 м мгла 4/4 1200 м
[Sc]
+41.5 +23.3 36 +51 +61 опасность
перегрева
1003.0 996.8
12 25.06 Ю 2 4000 м мгла 3/3 1200 м
[Sc]
+43.0 +25.2 37 +55 +59 опасность
перегрева
1000.3 993.1 +43.5
15 25.06 Ю 2 4000 м мгла 3/0 1000 м
[Ac trans]
+39.0 +25.2 46 +52 +52 опасность
перегрева
1001.4 995.2
18 25.06 ЮВ 3 4000 м мгла ясно +35.0 +23.7 52 +46 +46 опасность
перегрева
1002.9 996.6
21 25.06 Ю 3 4000 м мгла ясно +33.0 +23.0 56 +43 +43 опасность
перегрева
1002.5 996.1
00 26.06 ЮВ 2 4000 м мгла ясно +31.0 +22.3 60 +40 +40 очень
душно
1002.6 996.2
03 26.06 Ю 5 4000 м мгла ясно +34.0 +22.3 51 +43 +46 опасность
перегрева
1002.5 995.1 +30.5
06 26.06 ЮВ 3 4000 м мгла ясно +40.0 +24.8 42 +52 +68 опасность
перегрева
1001.2 995.0

 

Местоположение метеостанции Суккур (Пакистан): широта 27.71 долгота 68.77 высота над уровнем моря 57 м.

В архиве по умолчанию представлена погода в Суккуре за последнюю неделю. Архивные данные за месяц целиком и за предыдущие месяцы, начиная с января 2011 года, Вы можете получить, выбрав интересующий диапазон дат из раскрывающегося списка и нажав кнопку "Ввод!".


*Определитесь, кто Вы:
робот инопланетянин человек

Внимание! Время в таблицах - всемирное. Для получения местного времени необходимо прибавить поправку, которая равна 5 ч.

Смотрите также архив погоды в соседних городах и на ближайших метеорологических станциях:

Погода в Рохри (Пакистан) (14 км)
Погода в Ларкане (Пакистан) (62 км)
Погода в Джейкобабаде (Пакистан) (72 км)
Погода в Мохенджо-Даро (Пакистан) (77 км)
Погода в Пад Идан (Пакистан) (115 км)
Погода в Навабшахе (Пакистан) (167 км)
Погода в Рахим Яр Хан (Пакистан) (172 км)
Погода в Хуздаре (Пакистан) (211 км)
Погода в Ханпуре (Пакистан) (214 км)
Погода в Сиби (Пакистан) (222 км)

Пояснения к столбцам:

Ветер - указаны скорость ветра в м/с - средняя за 10 мин, порывы в срок и между сроками (в фигурных скобках) и направление, откуда дует ветер: С - северный, СВ - северо-восточный, В - восточный, ЮВ - юго-восточный, Ю - южный, ЮЗ - юго-западный, З - западный, СЗ - северо-западный.
Видимость - горизонтальная дальность видимости в метрах или километрах. При видимости от 1 до 10 км при отсутствии осадков обычно наблюдается дымка, при ухудшении видимости до 1 км и менее - туман. В сухую погоду видимость может ухудшаться дымом, пылью или мглою.
Явления - указаны атмосферные явления, наблюдавшиеся в срок или в последний час перед сроком; фигурными скобками обозначены явления, наблюдавшиеся между сроками (за 1-3 часа до срока); квадратными скобками обозначены град или гололедные отложения с указанием их диаметра в мм.
Облачность - указаны через наклонную черту общая и нижняя облачность в баллах и высота нижней границы облаков в метрах; квадратными скобками обозначены формы облаков: Ci - перистые, Cs - перисто-слоистые, Cc - перисто-кучевые, Ac - высококучевые, As - высокослоистые, Sc - слоисто-кучевые, Ns - слоисто-дождевые, Cu - кучевые, Cb - кучево-дождевые. Подробнее классификацию облаков см. в Атласе облаков (PDF).
T - Температура воздуха - температура, измеренная на высоте 2 м над землей.
Td - Температура точки росы - температура, при понижении до которой содержащийся в воздухе водяной пар достигнет насыщения.
f - Относительная влажность воздуха - влажноcть воздуха, измеренная на высоте 2 м над землей.
Te - Эффективная температура - температура, которую ощущает одетый по сезону человек в тени. Характеристика душности погоды. При расчете учитывается влияние влажности воздуха и скорости ветра на теплоощущения человека.
Tes - Эффективная температура на солнце - температура, которую ощущает человек, с поправкой на солнечный нагрев. Характеристика знойности погоды. Зависит от высоты солнца над горизонтом, облачности и скорости ветра. Ночью, в пасмурную погоду, а также при ветре 12 м/с и более поправка равна нулю.
P - Атмосферное давление - приведенное к уровню моря атмосферное давление.
Po - Атмосферное давление - измеренное на уровне метеостанции атмосферное давление.
Tmin - Минимальная температура - минимум температуры воздуха на высоте 2 м над землей.
Tmax - Максимальная температура - максимум температуры воздуха на высоте 2 м над землей.
R - Количество осадков - Количество выпавших осадков за период времени, мм. При наведении курсора мыши на число - период времени, за который выпало указанное количество осадков.
R24 - Количество осадков - Количество выпавших осадков за 24 часа, мм.
S - Снежный покров - Высота снежного покрова, см. При наведении курсора мыши на число - состояние снежного покрова и степень покрытия местности в баллах.